Hourly Data Report for October 26, 2020

VICTORIA UNIVERSITY CS
BRITISH COLUMBIA
Current Station Operator: ECCC - MSC

48°27'25.200" N
123°18'16.600" W
60.10 m
1018598
71783
WYJ

Download Data

Hourly Data (October 2020)
Hourly Data Report for October 26, 2020
TIME
LST
Temp Definition
°C
Dew Point Definition
°C
Rel Hum Definition
%
Precip. Amount Definition
mm

Wind Dir Definition
10's deg

Wind Spd Definition
km/h
Visibility Definition
km
Stn Press Definition
kPa
Hmdx Definition


Wind Chill Definition


Weather Definition


00:00 1.9 -1.7 77 0.0 30 4   102.68     LegendNANA
01:00 3.2 -1.1 74 0.0 33 6   102.68     LegendNANA
02:00 2.6 1.9 95 0.2 30 3   102.65     LegendNANA
03:00 2.4 2.0 98 0.2 25 1   102.60     LegendNANA
04:00 2.4 2.2 99 0.5 0 1   102.61     LegendNANA
05:00 2.6 2.5 100 0.0 30 3   102.59     LegendNANA
06:00 2.8 2.6 99 0.0 33 4   102.59     LegendNANA
07:00 3.6 2.6 93 0.2 1 4   102.57     LegendNANA
08:00 4.5 2.7 88 0.0 1 2   102.62     LegendNANA
09:00 5.1 0.9 74 0.0 35 3   102.63     LegendNANA
10:00 5.9 1.2 72 0.0 35 3   102.62     LegendNANA
11:00 6.4 0.4 66 0.0 7 2   102.62     LegendNANA
12:00 6.4 -0.1 63 0.0 2 4   102.60     LegendNANA
13:00 7.0 0.2 62 0.0 5 2   102.55     LegendNANA
14:00 7.2 0.2 61 0.0 6 3   102.48     LegendNANA
15:00 6.6 1.1 68 0.0 1 4   102.48     LegendNANA
16:00 6.7 1.2 68 0.0 6 2   102.44     LegendNANA
17:00 5.4 1.5 76 0.0 36 2   102.45     LegendNANA
18:00 2.8 2.0 95 0.0   0   102.43     LegendNANA
19:00 2.1 1.6 97 0.0   0   102.46     LegendNANA
20:00 3.2 2.6 96 0.0 24 2   102.43     LegendNANA
21:00 4.2 3.4 95 0.0 0 1   102.43     LegendNANA
22:00 4.2 2.8 91 0.0 26 1   102.44     LegendNANA
23:00 4.7 3.4 92 0.0 34 2   102.39     LegendNANA

Notes on Data Quality.

Legend

  • E = Estimated
  • M = Missing
  • NA = Not Available*
  • [empty] = Indicates an unobserved value
Date modified: